Location: Laterina
(43.5167°N, 11.7167°E)
Time: 13:58:29
(UTC+00:00)

Cosmos 2026 Rocket - Pass Details

Date: 26 January 2021
Orbit: 940 x 1000 km, 82.9° (Epoch: 28 February)

Event Time Altitude Azimuth Distance (km) Brightness Sun altitude
Rises 16:38:50 0° 151° (SSE) 3,610 6.9 -4.5°
Reaches altitude 10° 16:41:40 10° 140° (SE) 2,677 6.1 -5.0°
Maximum altitude 16:46:40 27° 85° (E) 1,751 4.8 -5.9°
Drops below altitude 10° 16:51:46 10° 30° (NNE) 2,726 5.9 -6.7°
Sets 16:54:39 0° 19° (NNE) 3,688 6.7 -7.2°
